Boulder City, NV

8:37 PM PST on November 13, 2019 (GMT -0800)
Boulder City

Weather History for KBVU - September, 2019

Change the Weather History Date:

Tuesday, September 3, 2019

  Actual Average (WUND) Record (WUND)
Temperature  
Mean Temperature 90 °F -  
Max Temperature 104 °F - - (-1)
Min Temperature 77 °F - - (-1)
Cooling Degree Days 26    
Growing Degree Days 40 (Base 50)    
Moisture  
Dew Point 52 °F    
Average Humidity 28    
Maximum Humidity 48    
Minimum Humidity 14    
Precipitation  
Precipitation 0.00 in - - ()
Sea Level Pressure  
Sea Level Pressure 29.92 in    
Wind  
Wind Speed 2 mph ()    
Max Wind Speed 16 mph    
Max Gust Speed 14 mph    
Visibility 9.9 miles    
Events      
Averages and records for this station are not official NWS values.
T = Trace of Precipitation, MM = Missing Value Source: Averaged Metar Reports

Daily Weather History Graph

Daily Weather History Graph

Search for Another Location

Airport or City:

Astronomy

Sep. 03, 2019 Rise Set
Actual Time 6:12 AM PDT 7:04 PM PDT
Civil Twilight 5:46 AM PDT 7:30 PM PDT
Nautical Twilight 5:15 AM PDT 8:01 PM PDT
Astronomical Twilight 4:43 AM PDT 8:32 PM PDT
Moon 11:01 AM PDT (9/3) 10:13 PM PDT (9/3)
Length of Visible Light 13h 43m
Length of Day
12h 51m
Waxing Crescent, 25% of the Moon is Illuminated
Sep 3
Waxing Crescent
Sep 5
First Quarter
Sep 13
Full
Sep 21
Last Quarter
Sep 28
New

Hourly Weather History & Observations

Time (PDT) Temp. Heat Index Dew Point Humidity Pressure Visibility Wind Dir Wind Speed Gust Speed Precip Events Conditions
12:15 AM 86.0 °F 84.5 °F 55.4 °F 35% 29.95 in 10.0 mi ENE 4.6 mph - N/A   Clear
12:35 AM 86.0 °F 84.9 °F 57.2 °F 37% 29.96 in 10.0 mi NE 5.8 mph - N/A   Partly Cloudy
12:55 AM 82.4 °F 82.5 °F 59.0 °F 45% 29.96 in 10.0 mi NE 4.6 mph - N/A   Scattered Clouds
1:15 AM 82.4 °F 82.5 °F 59.0 °F 45% 29.95 in 10.0 mi Calm Calm - N/A   Scattered Clouds
1:35 AM 82.4 °F 82.0 °F 57.2 °F 42% 29.95 in 10.0 mi North 4.6 mph - N/A   Scattered Clouds
1:55 AM 82.4 °F 81.7 °F 55.4 °F 39% 29.95 in 10.0 mi Calm Calm - N/A   Scattered Clouds
2:15 AM 84.2 °F 83.0 °F 55.4 °F 37% 29.95 in 10.0 mi Calm Calm - N/A   Scattered Clouds
2:35 AM 82.4 °F 82.0 °F 57.2 °F 42% 29.95 in 10.0 mi NNE 5.8 mph - N/A   Mostly Cloudy
2:55 AM 82.4 °F 82.0 °F 57.2 °F 42% 29.95 in 10.0 mi Calm Calm - N/A   Scattered Clouds
3:15 AM 80.6 °F 81.1 °F 59.0 °F 48% 29.95 in 10.0 mi Calm Calm - N/A   Mostly Cloudy
3:35 AM 84.2 °F 82.8 °F 53.6 °F 35% 29.95 in 10.0 mi Calm Calm - N/A   Mostly Cloudy
3:55 AM 80.6 °F 80.5 °F 55.4 °F 42% 29.96 in 10.0 mi Calm Calm - N/A   Mostly Cloudy
4:15 AM 82.4 °F 81.4 °F 53.6 °F 37% 29.95 in 10.0 mi Calm Calm - N/A   Mostly Cloudy
4:35 AM 78.8 °F - 55.4 °F 44% 29.95 in 10.0 mi NNE 4.6 mph - N/A   Mostly Cloudy
4:55 AM 78.8 °F - 55.4 °F 44% 29.95 in 10.0 mi NNE 3.5 mph - N/A   Mostly Cloudy
5:15 AM 78.8 °F - 55.4 °F 44% 29.96 in 10.0 mi Calm Calm - N/A   Mostly Cloudy
5:35 AM 78.8 °F - 55.4 °F 44% 29.96 in 10.0 mi Calm Calm - N/A   Scattered Clouds
5:55 AM 80.6 °F 80.3 °F 53.6 °F 39% 29.97 in 10.0 mi Calm Calm - N/A   Partly Cloudy
6:15 AM 77.0 °F - 55.4 °F 47% 29.97 in 10.0 mi Calm Calm - N/A   Clear
6:35 AM 78.8 °F - 53.6 °F 42% 29.98 in 10.0 mi Calm Calm - N/A   Clear
6:55 AM 78.8 °F - 55.4 °F 44% 29.98 in 10.0 mi Calm Calm - N/A   Clear
7:15 AM 82.4 °F 81.7 °F 55.4 °F 39% 29.98 in 10.0 mi Calm Calm - N/A   Clear
7:35 AM 86.0 °F 84.5 °F 55.4 °F 35% 29.98 in 10.0 mi Calm Calm - N/A   Clear
7:55 AM 86.0 °F - 51.8 °F 31% 29.98 in 10.0 mi Calm Calm - N/A   Clear
8:15 AM 86.0 °F - 51.8 °F 31% 29.99 in 10.0 mi Calm Calm - N/A   Clear
8:35 AM 87.8 °F - 51.8 °F 29% 29.99 in 10.0 mi Calm Calm - N/A   Clear
8:55 AM 89.6 °F 87.3 °F 53.6 °F 29% 29.99 in 10.0 mi Calm Calm - N/A   Clear
9:15 AM 91.4 °F 89.1 °F 53.6 °F 28% 29.99 in 10.0 mi Calm Calm - N/A   Clear
9:35 AM 93.2 °F - 51.8 °F 24% 29.99 in 10.0 mi Calm Calm - N/A   Clear
9:55 AM 93.2 °F - 51.8 °F 24% 29.99 in 8.0 mi Calm Calm - N/A   Clear
10:15 AM 95.0 °F - 51.8 °F 23% 29.99 in 10.0 mi Calm Calm - N/A   Clear
10:35 AM 95.0 °F - 51.8 °F 23% 29.99 in 10.0 mi Calm Calm - N/A   Clear
10:55 AM 96.8 °F - 51.8 °F 22% 29.98 in 10.0 mi Calm Calm - N/A   Clear
11:15 AM 96.8 °F - 51.8 °F 22% 29.98 in 10.0 mi ESE 3.5 mph - N/A   Clear
11:35 AM 98.6 °F - 50.0 °F 19% 29.97 in 10.0 mi Calm Calm - N/A   Clear
11:55 AM 98.6 °F - 51.8 °F 21% 29.96 in 10.0 mi NE 8.1 mph - N/A   Clear
12:15 PM 98.6 °F - 50.0 °F 19% 29.95 in 10.0 mi WNW 5.8 mph - N/A   Clear
12:35 PM 100.4 °F - 50.0 °F 18% 29.94 in 10.0 mi Variable 5.8 mph - N/A   Clear
12:55 PM 100.4 °F - 50.0 °F 18% 29.93 in 10.0 mi North 4.6 mph - N/A   Clear
1:15 PM 100.4 °F - 50.0 °F 18% 29.93 in 10.0 mi Variable 4.6 mph - N/A   Clear
1:35 PM 102.2 °F - 48.2 °F 16% 29.92 in 10.0 mi Variable 6.9 mph - N/A   Clear
1:55 PM 102.2 °F - 46.4 °F 15% 29.91 in 10.0 mi NNE 8.1 mph - N/A   Clear
2:15 PM 102.2 °F - 48.2 °F 16% 29.90 in 10.0 mi Calm Calm - N/A   Clear
2:35 PM 102.2 °F - 48.2 °F 16% 29.88 in 10.0 mi Variable 4.6 mph 13.8 mph N/A   Clear
2:55 PM 104.0 °F - 46.4 °F 14% 29.88 in 10.0 mi Calm Calm 12.7 mph N/A   Clear
3:15 PM 102.2 °F - 46.4 °F 15% 29.87 in 10.0 mi Calm Calm - N/A   Clear
3:35 PM 100.4 °F - 48.2 °F 17% 29.87 in 10.0 mi Calm Calm - N/A   Clear
3:55 PM 100.4 °F - 46.4 °F 16% 29.86 in 10.0 mi Variable 3.5 mph - N/A   Clear
4:15 PM 100.4 °F - 50.0 °F 18% 29.86 in 10.0 mi SW 16.1 mph - N/A   Clear
4:35 PM 100.4 °F - 48.2 °F 17% 29.86 in 10.0 mi SW 11.5 mph - N/A   Clear
4:55 PM 100.4 °F - 48.2 °F 17% 29.85 in 10.0 mi SW 10.4 mph - N/A   Clear
5:15 PM 100.4 °F - 48.2 °F 17% 29.85 in 10.0 mi SW 4.6 mph - N/A   Clear
5:35 PM 100.4 °F - 48.2 °F 17% 29.85 in 10.0 mi Calm Calm - N/A   Clear
5:55 PM 100.4 °F - 48.2 °F 17% 29.85 in 10.0 mi SSW 4.6 mph - N/A   Clear
6:15 PM 100.4 °F - 48.2 °F 17% 29.85 in 10.0 mi SW 5.8 mph - N/A   Clear
6:35 PM 98.6 °F - 48.2 °F 18% 29.85 in 10.0 mi SW 5.8 mph - N/A   Clear
6:55 PM 98.6 °F - 48.2 °F 18% 29.85 in 10.0 mi WSW 3.5 mph - N/A   Clear
7:15 PM 96.8 °F - 48.2 °F 19% 29.86 in 10.0 mi Calm Calm - N/A   Clear
7:35 PM 95.0 °F - 50.0 °F 22% 29.86 in 10.0 mi Calm Calm - N/A   Clear
7:55 PM 93.2 °F - 48.2 °F 21% 29.86 in 7.0 mi West 4.6 mph - N/A   Clear
8:15 PM 89.6 °F 87.7 °F 55.4 °F 31% 29.87 in 10.0 mi Calm Calm - N/A   Clear
8:35 PM 91.4 °F 89.1 °F 53.6 °F 28% 29.87 in 10.0 mi Calm Calm - N/A   Clear
8:55 PM 91.4 °F 89.1 °F 53.6 °F 28% 29.88 in 10.0 mi Calm Calm - N/A   Clear
9:15 PM 87.8 °F 85.7 °F 53.6 °F 31% 29.88 in 10.0 mi Calm Calm - N/A   Clear
9:35 PM 87.8 °F - 50.0 °F 27% 29.88 in 10.0 mi NW 4.6 mph - N/A   Clear
9:55 PM 87.8 °F - 48.2 °F 25% 29.88 in 10.0 mi NW 6.9 mph - N/A   Clear
10:15 PM 89.6 °F - 48.2 °F 24% 29.88 in 10.0 mi NW 3.5 mph - N/A   Clear
10:35 PM 86.0 °F 84.2 °F 53.6 °F 33% 29.88 in 10.0 mi Calm Calm - N/A   Clear
10:55 PM 86.0 °F 84.2 °F 53.6 °F 33% 29.88 in 10.0 mi Calm Calm - N/A   Clear
11:15 PM 84.2 °F 83.0 °F 55.4 °F 37% 29.88 in 10.0 mi Calm Calm - N/A   Clear
11:35 PM 84.2 °F - 51.8 °F 33% 29.88 in 10.0 mi NW 4.6 mph - N/A   Clear
11:55 PM 86.0 °F - 51.8 °F 31% 29.88 in 10.0 mi NW 4.6 mph - N/A   Clear